This is the latest recevied weather packets stored in our database for station/object KA9CBS. If no packets are shown the sender has not sent any weather packets the latest 10 day(s).
| Time | Temp. | Humidity | Pressure | Rain* | Wind** | Luminosity | Snow |
|---|---|---|---|---|---|---|---|
| 1787525401 | 25.56° C | 56% | 1018.4 hPa | 0 mm | - | 107 W/m² | - |
| 1787525097 | 25.56° C | 56% | 1018.1 hPa | 0 mm | - | 86 W/m² | - |
| 1787524792 | 25.56° C | 57% | 1018.6 hPa | 0 mm | - | 74 W/m² | - |
| 1787524488 | 26.11° C | 56% | 1018 hPa | 0 mm | - | 85 W/m² | - |
| 1787524182 | 26.11° C | 54% | 1018.3 hPa | 0 mm | - | 89 W/m² | - |
| 1787523878 | 26.11° C | 54% | 1018.3 hPa | 0 mm | - | 100 W/m² | - |
| 1787523572 | 26.11° C | 52% | 1018.4 hPa | 0 mm | - | 108 W/m² | - |
| 1787523268 | 26.11° C | 53% | 1018.6 hPa | 0 mm | - | 118 W/m² | - |
| 1787522964 | 26.67° C | 52% | 1018.4 hPa | 0 mm | - | 137 W/m² | - |
| 1787522659 | 26.67° C | 54% | 1018.5 hPa | 0 mm | - | 334 W/m² | - |
| 1787522354 | 26.67° C | 57% | 1018.4 hPa | 0 mm | - | 269 W/m² | - |
| 1787522050 | 26.11° C | 57% | 1018.5 hPa | 0 mm | - | 304 W/m² | - |
| 1787521749 | 26.67° C | 56% | 1018.4 hPa | 0 mm | - | 131 W/m² | - |
| 1787521443 | 26.67° C | 57% | 1018.4 hPa | 0 mm | - | 132 W/m² | - |
| 1787521143 | 26.67° C | 54% | 1018.3 hPa | 0 mm | - | 182 W/m² | - |
| 1787520838 | 26.11° C | 54% | 1018.2 hPa | 0 mm | - | 196 W/m² | - |
| 1787520533 | 26.67° C | 55% | 1018.4 hPa | 0 mm | - | 160 W/m² | - |
| 1787520229 | 26.67° C | 54% | 1018.5 hPa | 0 mm | - | 170 W/m² | - |
| 1787519930 | 26.67° C | 55% | 1018.4 hPa | 0 mm | - | 195 W/m² | - |
| 1787519625 | 26.67° C | 53% | 1018.7 hPa | 0 mm | - | 193 W/m² | - |
| 1787519325 | 26.67° C | 58% | 1018.8 hPa | 0 mm | - | 184 W/m² | - |
| 1787519020 | 26.67° C | 59% | 1018.7 hPa | 0 mm | - | 419 W/m² | - |
| 1787518715 | 26.67° C | 58% | 1018.8 hPa | 0 mm | - | 434 W/m² | - |
| 1787518411 | 26.67° C | 56% | 1018.6 hPa | 0 mm | - | 392 W/m² | - |
| 1787518106 | 27.22° C | 55% | 1018.5 hPa | 0 mm | - | 405 W/m² | - |
* Rain latest hour (hover to see other rain measurements)
** Current wind speed in m/s (hover to see current wind gust speed)